sat.trackr.live / text

‹ back to catalog

IRIDIUM 141

NORAD 43077 · 2017-083H

PAYLOAD ACTIVE UNKNOWN

§ Identity

Operator
Country
US
Launch date
2017-12-23
Launch site
AFWTR
Launch vehicle
Mass (kg)
RCS (m²)

Purposes: comms

External: N2YO · Heavens-Above · Gunter

§ Orbital elements

Epoch: 2026-09-13T00:58:51.129984Z

Period
100.40 min
Inclination
86.3919°
Eccentricity
0.0002189
Mean motion
14.34217593 rev/d
Perigee alt
776.1 km
Apogee alt
779.2 km
Semi-major
7,155.8 km
B*
-7.7362e-6
RAAN
285.2623°
Arg perigee
93.1726°
Mean anomaly
266.9720°
Rev number
45,676

§ Raw data

IRIDIUM 1411 43077U 17083H   26256.04086956 -.00000002  00000+0 -77362-5 0  99922 43077  86.3919 285.2623 0002189  93.1726 266.9720 14.34217593456764

JSON: /api/v1/satellites/43077 · /tle

For live sub-satellite position, see the globe view (requires WebGL).

§ Visibility from observer

Set your observer location to see the next 7 days of passes ≥ 10°. The values pass through the URL so the page stays shareable.

No JS? Fill the form by hand. The geolocation button needs JavaScript.